FW7230 Weather Reports


Display with metric or nautical units.
time (UTC)temp
F
wind
direction
speed
MPH
gust
MPH
rain 1hr
in
rain 24hr
in
rain mn
in
humidity
%
barometer
mb
20260506062329 47 302 0.0 0.0 0.00 0.05 0.00 60 1015.6
20260506060345 47 301 0.0 1.0 0.00 0.05 0.00 60 1015.4
20260506051326 47 300 0.0 0.0 0.00 0.05 0.00 60 1015.6
20260506050344 47 300 0.0 0.0 0.00 0.05 0.00 61 1015.5
20260506044330 47 302 0.0 0.0 0.00 0.05 0.05 60 1015.2
20260506043346 48 302 0.0 0.0 0.00 0.05 0.05 58 1014.9
20260506042324 49 302 0.0 0.0 0.00 0.05 0.05 57 1014.8
20260506041330 49 302 0.0 0.0 0.00 0.05 0.05 58 1014.7
20260506040327 49 302 0.0 1.0 0.00 0.05 0.05 57 1014.6
20260506035356 50 302 0.0 1.0 0.00 0.05 0.05 57 1014.5
20260506034341 50 302 0.0 1.0 0.00 0.05 0.05 57 1014.5
20260506033337 50 350 0.0 2.0 0.00 0.05 0.05 56 1014.5
20260506032324 51 20 1.0 4.0 0.00 0.05 0.05 56 1014.2
20260506031338 51 354 1.0 4.0 0.00 0.05 0.05 56 1014.2
20260506030336 50 308 0.0 3.0 0.00 0.05 0.05 55 1014.3
20260506025340 50 273 0.0 1.0 0.00 0.05 0.05 56 1014.2
20260506024556 51 311 0.0 0.0 0.00 0.05 0.05 55 1013.4
20260506021323 51 311 0.0 1.0 0.00 0.05 0.05 55 1013.1
20260506020341 51 311 0.0 0.0 0.00 0.05 0.05 54 1013.0
20260506015321 52 312 0.0 1.0 0.00 0.05 0.05 54 1012.8
20260506014328 52 312 0.0 1.0 0.00 0.05 0.05 53 1012.9
20260506013326 53 293 0.0 2.0 0.00 0.05 0.05 50 1012.7
20260506010336 53 316 0.0 4.0 0.00 0.05 0.05 50 1012.7
20260506005556 53 325 0.0 2.0 0.00 0.05 0.05 50 1012.6
20260506004326 53 284 1.0 3.0 0.00 0.05 0.05 50 1012.6
20260506003345 54 10 0.0 2.0 0.00 0.05 0.05 54 1012.7
20260506002325 54 358 1.0 3.0 0.00 0.05 0.05 55 1012.6
20260506001333 54 280 0.0 0.0 0.00 0.05 0.05 59 1012.5
20260506000331 55 280 0.0 1.0 0.00 0.05 0.05 58 1012.3
20260505235355 55 281 0.0 0.0 0.00 0.05 0.05 56 1012.3
20260505234340 55 281 0.0 0.0 0.00 0.05 0.05 54 1012.3
20260505233339 56 281 0.0 0.0 0.00 0.05 0.05 54 1012.2
20260505232320 56 281 0.0 1.0 0.00 0.05 0.05 54 1012.1
20260505231328 56 345 0.0 1.0 0.00 0.05 0.05 54 1012.0
20260505230346 56 346 0.0 1.0 0.00 0.05 0.05 53 1011.9
20260505225327 57 335 1.0 3.0 0.00 0.05 0.05 52 1011.9
20260505224354 56 355 1.0 3.0 0.00 0.05 0.05 52 1012.0
20260505223330 56 1 0.0 5.0 0.00 0.05 0.05 50 1012.0
20260505222335 57 33 0.0 3.0 0.00 0.05 0.05 48 1012.0
20260505221320 57 291 2.0 8.0 0.00 0.05 0.05 48 1012.1
20260505220406 57 335 1.0 6.0 0.00 0.05 0.05 51 1012.0
20260505215325 57 293 0.0 4.0 0.00 0.05 0.05 51 1012.3
20260505214329 57 309 0.0 5.0 0.00 0.05 0.05 49 1012.3
20260505213328 58 300 0.0 4.0 0.00 0.05 0.05 49 1012.2
20260505212356 58 250 0.0 3.0 0.00 0.05 0.05 48 1012.4
20260505211828 58 343 3.0 6.0 0.00 0.05 0.05 46 1012.4
20260505210332 58 271 3.0 7.0 0.00 0.05 0.05 45 1012.4
20260505205356 58 301 1.0 7.0 0.00 0.05 0.05 45 1012.5
20260505204322 58 316 3.0 7.0 0.00 0.05 0.05 45 1012.5
20260505203343 58 25 3.0 10.0 0.00 0.05 0.05 47 1012.4
20260505202322 58 337 2.0 7.0 0.00 0.05 0.05 45 1012.4
20260505201326 58 222 2.0 9.0 0.00 0.05 0.05 46 1012.4
20260505200346 58 281 1.0 5.0 0.00 0.05 0.05 46 1012.5
20260505195328 58 322 2.0 13.0 0.00 0.05 0.05 47 1012.5
20260505194753 58 276 4.0 7.0 0.00 0.05 0.05 49 1012.6
20260505193344 57 285 5.0 10.0 0.00 0.05 0.05 47 1012.7
20260505192321 57 297 3.0 6.0 0.00 0.05 0.05 58 1012.7
20260505191326 56 277 4.0 10.0 0.00 0.05 0.05 62 1012.9
20260505190343 56 281 4.0 8.0 0.00 0.05 0.05 63 1012.9
20260505185329 56 278 4.0 8.0 0.00 0.05 0.05 60 1013.0
20260505184334 57 266 5.0 7.0 0.00 0.05 0.05 58 1013.0
20260505183331 57 262 4.0 9.0 0.00 0.05 0.05 67 1013.0
20260505182336 57 274 4.0 7.0 0.00 0.05 0.05 65 1013.1
20260505181324 56 259 2.0 6.0 0.00 0.05 0.05 67 1013.2
20260505180322 56 276 6.0 10.0 0.00 0.05 0.05 61 1013.4
20260505175825 55 232 3.0 7.0 0.00 0.05 0.05 67 1013.3
20260505173335 54 277 4.0 6.0 0.00 0.05 0.05 66 1013.3
20260505172322 54 249 2.0 5.0 0.00 0.05 0.05 64 1013.4
20260505171328 54 262 1.0 5.0 0.00 0.05 0.05 66 1013.5
20260505170344 54 280 3.0 4.0 0.00 0.05 0.05 66 1013.6
20260505165324 53 257 3.0 5.0 0.00 0.05 0.05 66 1013.6
20260505164346 53 322 2.0 4.0 0.00 0.05 0.05 72 1013.7
20260505163344 53 285 2.0 4.0 0.00 0.05 0.05 72 1013.6
20260505162316 53 265 0.0 4.0 0.00 0.05 0.05 76 1013.6
20260505160343 52 259 2.0 4.0 0.00 0.05 0.05 75 1013.5
20260505153327 51 274 2.0 5.0 0.00 0.05 0.05 79 1013.6
20260505152333 51 249 3.0 4.0 0.00 0.05 0.05 81 1013.6
20260505151319 51 256 2.0 3.0 0.00 0.05 0.05 78 1013.4
20260505150340 50 263 1.0 3.0 0.00 0.05 0.05 82 1013.2
20260505124338 47 312 0.0 0.0 0.00 0.05 0.05 93 1011.7
20260505123337 47 311 0.0 1.0 0.00 0.05 0.05 94 1011.5
20260505122323 47 311 0.0 1.0 0.01 0.05 0.05 94 1011.3
20260505121337 46 312 0.0 0.0 0.01 0.05 0.05 93 1011.0
20260505120334 46 311 0.0 0.0 0.01 0.05 0.05 93 1010.7
20260505115322 46 312 0.0 0.0 0.01 0.05 0.05 93 1010.6
20260505114326 46 311 0.0 0.0 0.01 0.05 0.05 92 1010.3
20260505113344 46 311 0.0 0.0 0.01 0.05 0.05 92 1010.4
20260505112324 46 312 0.0 0.0 0.00 0.04 0.04 91 1010.8
20260505111332 46 312 0.0 0.0 0.01 0.04 0.04 91 1010.7
20260505110344 46 311 0.0 1.0 0.02 0.04 0.04 91 1010.6
20260505101828 47 312 0.0 0.0 0.03 0.03 0.03 85 1011.3
20260505100344 47 311 0.0 1.0 0.02 0.02 0.02 85 1011.4
20260505095326 48 312 0.0 1.0 0.02 0.02 0.02 82 1011.3
20260505094327 48 314 0.0 1.0 0.02 0.02 0.02 78 1010.7
20260505094101 50 313 0.0 2.0 0.00 0.00 0.00 70 1011.3
20260505091334 51 271 0.0 1.0 0.00 0.00 0.00 65 1011.3
20260505090333 51 271 0.0 2.0 0.00 0.00 0.00 63 1011.2
20260505085319 51 343 0.0 3.0 0.00 0.00 0.00 61 1010.7
20260505084325 52 18 1.0 5.0 0.00 0.00 0.00 60 1010.5
20260505083344 52 359 2.0 3.0 0.00 0.00 0.00 59 1010.2
20260505082344 52 23 0.0 3.0 0.00 0.00 0.00 58 1010.1
20260505081330 52 79 1.0 4.0 0.00 0.00 0.00 58 1010.0
20260505080407 52 18 4.0 8.0 0.00 0.00 0.00 58 1009.2
20260505075325 52 23 6.0 9.0 0.00 0.00 0.00 56 1009.3
20260505074333 52 16 5.0 10.0 0.00 0.00 0.00 55 1009.4
20260505073331 53 342 4.0 8.0 0.00 0.00 0.00 54 1009.9
20260505072337 53 28 5.0 11.0 0.00 0.00 0.00 53 1009.9
20260505071324 53 20 6.0 11.0 0.00 0.00 0.00 54 1009.6
20260505070343 53 15 5.0 14.0 0.00 0.00 0.00 54 1009.5
20260505065321 53 33 4.0 11.0 0.00 0.00 0.00 56 1009.4
20260505064323 53 360 3.0 7.0 0.00 0.00 0.00 58 1009.4